EST,Max TemperatureF,Mean TemperatureF,Min TemperatureF,Max Dew PointF,MeanDew PointF,Min DewpointF,Max Humidity, Mean Humidity, Min Humidity, Max Sea Level PressureIn, Mean Sea Level PressureIn, Min Sea Level PressureIn, Max VisibilityMiles, Mean VisibilityMiles, Min VisibilityMiles, Max Wind SpeedMPH, Mean Wind SpeedMPH, Max Gust SpeedMPH,PrecipitationIn, CloudCover, Events, WindDirDegrees
2011-11-1,48,38,28,32,29,27,96,75,48,30.37,30.32,30.27,10,9,7,14,6,17,0.00,1,,175
2011-11-2,52,41,30,35,32,27,96,74,50,30.30,30.21,30.07,10,9,7,21,8,26,0.00,1,,187
2011-11-3,51,43,35,43,37,33,100,86,59,30.05,29.84,29.78,10,8,3,17,10,24,0.12,6,Rain,275
2011-11-4,39,34,28,33,29,20,96,83,65,30.18,29.93,29.81,10,8,0,28,13,39,0.01,6,Fog-Snow,332
2011-11-5,37,32,26,20,19,18,74,62,48,30.38,30.31,30.18,10,10,10,22,10,30,0.00,3,,308
2011-11-6,50,38,26,25,21,16,85,55,28,30.30,30.21,30.13,10,10,10,20,9,25,0.00,0,,237
2011-11-7,54,43,32,40,29,21,77,58,40,30.14,30.04,29.94,10,10,8,18,8,25,0.00,1,,212
2011-11-8,53,46,39,40,32,27,87,63,38,30.21,30.09,29.96,10,9,7,21,9,26,0.00,2,,274
2011-11-9,40,39,37,37,35,28,100,87,65,30.26,30.18,30.05,10,8,6,13,5,16,0.01,7,Rain,90
2011-11-10,54,47,40,52,48,35,100,96,79,30.06,29.82,29.53,9,4,0,18,12,24,0.49,8,Fog-Rain,139
2011-11-11,52,41,30,52,39,22,100,92,72,29.52,29.32,29.24,10,6,1,25,15,33,0.59,8,Rain-Snow,324
2011-11-12,37,32,26,34,27,16,100,83,54,29.91,29.72,29.44,10,6,1,25,12,35,0.02,7,Snow,233
2011-11-13,49,42,34,40,35,33,93,78,58,30.06,29.96,29.79,10,8,5,17,10,24,0.00,3,,173
2011-11-14,48,46,43,46,44,41,100,95,83,29.79,29.66,29.58,9,6,2,15,8,20,0.04,6,Rain,157
2011-11-15,49,43,37,45,43,36,100,94,82,29.84,29.57,29.48,10,6,0,20,6,29,0.24,6,Fog-Rain,223
2011-11-16,50,41,32,40,36,32,100,87,63,29.89,29.79,29.57,10,7,0,16,7,21,T,3,Fog,173
2011-11-17,44,36,27,40,27,17,89,71,64,29.72,29.65,29.56,10,10,10,18,11,22,0.00,4,,299
2011-11-18,32,27,22,18,15,10,81,65,47,30.16,29.97,29.70,10,10,10,23,12,31,T,2,,287
2011-11-19,39,31,23,24,22,17,81,66,50,30.18,30.09,29.99,10,9,5,17,8,22,T,7,Snow,194
2011-11-20,46,35,23,38,26,15,79,69,59,30.11,29.82,29.64,10,10,7,25,11,33,T,5,Rain,254
2011-11-21,23,17,10,14,7,4,73,64,48,30.38,30.30,30.13,10,10,10,22,9,28,0.00,1,,317
2011-11-22,27,17,7,13,8,4,88,66,37,30.40,30.36,30.31,10,10,8,12,4,15,0.00,0,,294
2011-11-23,22,18,13,19,14,10,93,82,66,30.32,30.08,29.96,10,6,1,10,5,13,0.01,5,Snow,41
2011-11-24,29,20,10,27,18,9,93,87,78,30.04,29.98,29.91,10,9,5,15,5,18,0.00,6,,252
2011-11-25,38,34,29,36,33,27,100,95,86,29.95,29.83,29.76,9,5,0,17,8,24,0.00,8,Fog,207
2011-11-26,40,35,30,37,28,22,93,73,59,30.32,30.09,29.83,10,10,7,21,9,30,T,6,Rain,324
2011-11-27,35,32,28,35,28,21,100,91,69,30.34,30.20,29.99,10,4,0,25,12,35,0.05,8,Fog-Rain-Snow,131
2011-11-28,49,38,26,46,37,24,100,91,75,30.13,29.88,29.74,10,6,0,24,10,32,0.09,6,Fog-Rain-Snow,252
2011-11-29,39,32,25,39,31,24,100,93,85,30.16,30.05,29.92,10,8,0,13,7,16,0.00,7,Fog,124
2011-11-30,58,48,37,57,48,34,100,94,82,29.88,29.53,29.36,10,6,0,28,13,38,0.37,7,Fog-Rain,183